Location: Newark
(36.0797°N, 3.9744°E)
Time: 19:11:21
(UTC+00:00)

Vanguard 2 Rocket - Pass Details

Date: 17 December 2019
Orbit: 554 x 3326 km, 32.9° (Epoch: 29 January)

Event Time Altitude Azimuth Distance (km) Brightness Sun altitude
Rises 10:51:38 0° 179° (S) 6,858 12.5 29.5°
Reaches altitude 10° 11:00:42 10° 156° (SSE) 6,190 12.6 29.8°
Maximum altitude 11:07:59 13° 134° (SE) 6,011 12.0 30.1°
Drops below altitude 10° 11:15:12 10° 112° (ESE) 6,194 11.6 30.3°
Sets 11:24:00 0° 90° (E) 6,881 11.4 30.4°
